| time (UTC) | temp F | wind direction | speed MPH | gust MPH | rain 1hr in | rain 24hr in | rain mn in | humidity % | barometer mb |
| 20260906111448 | 79 | 222 | 0.0 | 3.0 | 0.00 | 0.00 | 0.00 | 94 | 1008.4 |
| 20260906110945 | 79 | 222 | 0.0 | 3.0 | 0.00 | 0.00 | 0.00 | 94 | 1008.3 |
| 20260906110444 | 79 | 222 | 0.0 | 5.0 | 0.00 | 0.00 | 0.00 | 94 | 1008.2 |
| 20260906105946 | 79 | 222 | 0.0 | 5.0 | 0.00 | 0.00 | 0.00 | 94 | 1008.2 |
| 20260906105446 | 79 | 222 | 1.0 | 5.0 | 0.00 | 0.00 | 0.00 | 94 | 1008.2 |
| 20260906104942 | 79 | 222 | 1.0 | 5.0 | 0.00 | 0.00 | 0.00 | 94 | 1008.1 |
| 20260906104441 | 80 | 222 | 1.0 | 5.0 | 0.00 | 0.00 | 0.00 | 94 | 1008.1 |
| 20260906103939 | 80 | 222 | 1.0 | 5.0 | 0.00 | 0.00 | 0.00 | 94 | 1008.1 |
| 20260906103437 | 79 | 222 | 1.0 | 5.0 | 0.00 | 0.00 | 0.00 | 94 | 1008.1 |
| 20260906102937 | 80 | 222 | 2.0 | 5.0 | 0.00 | 0.00 | 0.00 | 94 | 1008.2 |
| 20260906102437 | 79 | 222 | 2.0 | 4.0 | 0.00 | 0.00 | 0.00 | 94 | 1008.1 |
| 20260906101936 | 80 | 222 | 2.0 | 4.0 | 0.00 | 0.00 | 0.00 | 94 | 1008.0 |
| 20260906101433 | 80 | 222 | 2.0 | 4.0 | 0.00 | 0.00 | 0.00 | 94 | 1008.0 |
| 20260906100931 | 80 | 222 | 1.0 | 4.0 | 0.00 | 0.00 | 0.00 | 94 | 1007.9 |
| 20260906100519 | 80 | 222 | 1.0 | 4.0 | 0.00 | 0.00 | 0.00 | 94 | 1007.8 |
| 20260906100453 | 80 | 222 | 1.0 | 4.0 | 0.00 | 0.00 | 0.00 | 94 | 1007.9 |
| 20260906094923 | 80 | 222 | 0.0 | 0.0 | 0.00 | 0.00 | 0.00 | 93 | 1007.8 |
| 20260906094422 | 80 | 222 | 0.0 | 0.0 | 0.00 | 0.00 | 0.00 | 93 | 1007.8 |
| 20260906093921 | 80 | 222 | 0.0 | 1.0 | 0.00 | 0.00 | 0.00 | 93 | 1007.7 |
| 20260906093419 | 80 | 222 | 0.0 | 2.0 | 0.00 | 0.00 | 0.00 | 93 | 1007.8 |
| 20260906092916 | 80 | 222 | 0.0 | 2.0 | 0.00 | 0.00 | 0.00 | 94 | 1007.8 |
| 20260906092415 | 80 | 222 | 0.0 | 2.0 | 0.00 | 0.00 | 0.00 | 94 | 1007.7 |
| 20260906091913 | 80 | 222 | 0.0 | 2.0 | 0.00 | 0.00 | 0.00 | 94 | 1007.7 |
| 20260906091504 | 80 | 222 | 1.0 | 2.0 | 0.00 | 0.00 | 0.00 | 94 | 1007.6 |
| 20260906091443 | 80 | 222 | 0.0 | 2.0 | 0.00 | 0.00 | 0.00 | 94 | 1007.6 |
| 20260906085912 | 80 | 222 | 2.0 | 5.0 | 0.00 | 0.00 | 0.00 | 94 | 1007.8 |
| 20260906085406 | 80 | 222 | 2.0 | 5.0 | 0.00 | 0.00 | 0.00 | 94 | 1007.8 |
| 20260906084905 | 80 | 222 | 1.0 | 4.0 | 0.00 | 0.00 | 0.00 | 94 | 1007.8 |
| 20260906084409 | 80 | 222 | 1.0 | 4.0 | 0.00 | 0.00 | 0.00 | 94 | 1007.9 |
| 20260906083905 | 80 | 222 | 0.0 | 3.0 | 0.00 | 0.00 | 0.00 | 94 | 1007.9 |
| 20260906083403 | 80 | 222 | 1.0 | 3.0 | 0.00 | 0.00 | 0.00 | 94 | 1007.9 |
| 20260906082902 | 80 | 222 | 0.0 | 3.0 | 0.00 | 0.00 | 0.00 | 94 | 1007.8 |
| 20260906082403 | 80 | 222 | 0.0 | 2.0 | 0.00 | 0.00 | 0.00 | 94 | 1007.9 |
| 20260906081903 | 80 | 222 | 0.0 | 2.0 | 0.00 | 0.00 | 0.00 | 94 | 1007.8 |
| 20260906081401 | 80 | 222 | 0.0 | 2.0 | 0.00 | 0.00 | 0.00 | 94 | 1007.8 |
| 20260906080909 | 80 | 222 | 0.0 | 2.0 | 0.00 | 0.00 | 0.00 | 94 | 1008.0 |
| 20260906080359 | 80 | 222 | 0.0 | 2.0 | 0.00 | 0.00 | 0.00 | 94 | 1008.0 |
| 20260906075850 | 80 | 222 | 0.0 | 1.0 | 0.00 | 0.00 | 0.00 | 94 | 1008.0 |
| 20260906075345 | 80 | 222 | 1.0 | 2.0 | 0.00 | 0.00 | 0.00 | 94 | 1007.8 |
| 20260906075331 | 80 | 222 | 0.0 | 2.0 | 0.00 | 0.00 | 0.00 | 94 | 1007.9 |
| 20260906074338 | 80 | 222 | 0.0 | 2.0 | 0.00 | 0.00 | 0.00 | 93 | 1008.0 |
| 20260906073837 | 80 | 222 | 0.0 | 2.0 | 0.00 | 0.00 | 0.00 | 93 | 1008.0 |
| 20260906073337 | 80 | 222 | 0.0 | 3.0 | 0.00 | 0.00 | 0.00 | 93 | 1007.9 |
| 20260906072836 | 80 | 222 | 1.0 | 3.0 | 0.00 | 0.00 | 0.00 | 93 | 1007.9 |
| 20260906072335 | 80 | 222 | 1.0 | 3.0 | 0.00 | 0.00 | 0.00 | 93 | 1007.9 |
| 20260906071833 | 80 | 222 | 0.0 | 3.0 | 0.00 | 0.00 | 0.00 | 93 | 1007.9 |
| 20260906071332 | 80 | 222 | 0.0 | 2.0 | 0.00 | 0.00 | 0.00 | 93 | 1008.0 |
| 20260906071150 | 80 | 222 | 1.0 | 3.0 | 0.00 | 0.00 | 0.00 | 93 | 1008.0 |
| 20260906070329 | 80 | 222 | 1.0 | 3.0 | 0.00 | 0.00 | 0.00 | 93 | 1008.0 |
| 20260906065830 | 80 | 222 | 1.0 | 3.0 | 0.00 | 0.00 | 0.00 | 93 | 1007.9 |
| 20260906065552 | 80 | 222 | 1.0 | 3.0 | 0.00 | 0.00 | 0.00 | 92 | 1007.9 |
| 20260906064829 | 80 | 222 | 1.0 | 4.0 | 0.00 | 0.00 | 0.00 | 92 | 1007.8 |
| 20260906064328 | 80 | 222 | 1.0 | 4.0 | 0.00 | 0.00 | 0.00 | 92 | 1007.9 |
| 20260906063834 | 80 | 222 | 1.0 | 4.0 | 0.00 | 0.00 | 0.00 | 92 | 1007.9 |
| 20260906063331 | 80 | 222 | 1.0 | 4.0 | 0.00 | 0.00 | 0.00 | 92 | 1007.9 |
| 20260906062928 | 80 | 222 | 1.0 | 3.0 | 0.00 | 0.00 | 0.00 | 92 | 1008.0 |
| 20260906061830 | 80 | 222 | 1.0 | 4.0 | 0.00 | 0.00 | 0.00 | 92 | 1008.1 |
| 20260906061326 | 80 | 222 | 2.0 | 4.0 | 0.00 | 0.00 | 0.00 | 92 | 1008.1 |
| 20260906060820 | 80 | 222 | 1.0 | 4.0 | 0.00 | 0.00 | 0.00 | 92 | 1008.1 |
| 20260906060320 | 80 | 222 | 1.0 | 3.0 | 0.00 | 0.00 | 0.00 | 92 | 1008.2 |
| 20260906055818 | 81 | 222 | 1.0 | 2.0 | 0.00 | 0.00 | 0.00 | 92 | 1008.3 |
| 20260906055316 | 81 | 222 | 0.0 | 2.0 | 0.00 | 0.00 | 0.00 | 92 | 1008.4 |
| 20260906055132 | 81 | 222 | 0.0 | 2.0 | 0.00 | 0.00 | 0.00 | 92 | 1008.3 |
| 20260906054313 | 81 | 222 | 0.0 | 1.0 | 0.00 | 0.00 | 0.00 | 92 | 1008.4 |
| 20260906053827 | 81 | 222 | 0.0 | 1.0 | 0.00 | 0.00 | 0.00 | 92 | 1008.4 |
| 20260906052307 | 81 | 222 | 0.0 | 1.0 | 0.00 | 0.00 | 0.00 | 92 | 1008.6 |
| 20260906051807 | 81 | 222 | 0.0 | 2.0 | 0.00 | 0.00 | 0.00 | 91 | 1008.7 |
| 20260906051320 | 81 | 222 | 0.0 | 2.0 | 0.00 | 0.00 | 0.00 | 91 | 1008.8 |
| 20260906050803 | 81 | 222 | 0.0 | 2.0 | 0.00 | 0.00 | 0.00 | 91 | 1008.9 |
| 20260906050304 | 81 | 221 | 0.0 | 2.0 | 0.00 | 0.00 | 0.00 | 91 | 1008.9 |
| 20260906050145 | 81 | 221 | 0.0 | 3.0 | 0.00 | 0.00 | 0.00 | 91 | 1008.9 |
| 20260906045643 | 82 | 221 | 0.0 | 3.0 | 0.00 | 0.00 | 0.00 | 91 | 1008.9 |
| 20260906044801 | 82 | 221 | 0.0 | 3.0 | 0.00 | 0.00 | 0.00 | 91 | 1008.8 |
| 20260906044301 | 82 | 221 | 0.0 | 3.0 | 0.00 | 0.00 | 0.00 | 91 | 1008.8 |
| 20260906043803 | 82 | 221 | 1.0 | 2.0 | 0.00 | 0.00 | 0.00 | 91 | 1008.8 |
| 20260906043302 | 82 | 221 | 1.0 | 5.0 | 0.00 | 0.00 | 0.00 | 91 | 1008.6 |
| 20260906042801 | 82 | 221 | 1.0 | 5.0 | 0.00 | 0.00 | 0.00 | 91 | 1008.7 |
| 20260906042618 | 82 | 221 | 1.0 | 4.0 | 0.00 | 0.00 | 0.00 | 91 | 1008.7 |
| 20260906042118 | 82 | 221 | 1.0 | 8.0 | 0.00 | 0.00 | 0.00 | 91 | 1008.8 |
| 20260906041255 | 82 | 221 | 2.0 | 8.0 | 0.00 | 0.00 | 0.00 | 90 | 1008.8 |
| 20260906040754 | 82 | 221 | 2.0 | 8.0 | 0.00 | 0.00 | 0.00 | 90 | 1008.9 |
| 20260906040629 | 82 | 221 | 3.0 | 8.0 | 0.00 | 0.00 | 0.00 | 90 | 1008.9 |
| 20260906035754 | 83 | 221 | 3.0 | 8.0 | 0.00 | 0.00 | 0.00 | 91 | 1009.0 |
| 20260906035255 | 83 | 221 | 2.0 | 7.0 | 0.00 | 0.00 | 0.00 | 91 | 1009.0 |
| 20260906034755 | 83 | 221 | 2.0 | 7.0 | 0.00 | 0.00 | 0.00 | 91 | 1009.1 |
| 20260906034254 | 83 | 221 | 3.0 | 7.0 | 0.00 | 0.00 | 0.00 | 91 | 1009.0 |
| 20260906033754 | 83 | 221 | 3.0 | 8.0 | 0.00 | 0.00 | 0.00 | 91 | 1008.9 |
| 20260906033254 | 83 | 221 | 4.0 | 9.0 | 0.00 | 0.00 | 0.00 | 91 | 1008.9 |
| 20260906032756 | 83 | 221 | 3.0 | 9.0 | 0.00 | 0.00 | 0.00 | 91 | 1009.0 |
| 20260906032254 | 83 | 221 | 3.0 | 8.0 | 0.00 | 0.00 | 0.00 | 91 | 1009.1 |
| 20260906031754 | 83 | 221 | 3.0 | 8.0 | 0.00 | 0.00 | 0.00 | 91 | 1009.1 |
| 20260906031256 | 83 | 221 | 3.0 | 9.0 | 0.00 | 0.00 | 0.00 | 90 | 1009.1 |
| 20260906030754 | 83 | 221 | 3.0 | 9.0 | 0.00 | 0.00 | 0.00 | 90 | 1009.0 |
| 20260906030636 | 83 | 221 | 2.0 | 8.0 | 0.00 | 0.00 | 0.00 | 90 | 1009.1 |
| 20260906025754 | 83 | 221 | 3.0 | 8.0 | 0.00 | 0.00 | 0.00 | 90 | 1009.0 |
| 20260906025255 | 83 | 221 | 4.0 | 9.0 | 0.00 | 0.00 | 0.00 | 90 | 1009.0 |
| 20260906024759 | 83 | 221 | 4.0 | 9.0 | 0.00 | 0.00 | 0.00 | 90 | 1009.0 |
| 20260906024253 | 83 | 221 | 4.0 | 9.0 | 0.00 | 0.00 | 0.00 | 90 | 1008.9 |
| 20260906023752 | 83 | 221 | 5.0 | 9.0 | 0.00 | 0.00 | 0.00 | 90 | 1008.9 |
| 20260906023252 | 83 | 221 | 5.0 | 9.0 | 0.00 | 0.00 | 0.00 | 90 | 1008.7 |
| 20260906022752 | 83 | 221 | 4.0 | 8.0 | 0.00 | 0.00 | 0.00 | 89 | 1008.8 |
| 20260906022254 | 83 | 221 | 3.0 | 8.0 | 0.00 | 0.00 | 0.00 | 89 | 1008.8 |
| 20260906021756 | 83 | 221 | 2.0 | 6.0 | 0.00 | 0.00 | 0.00 | 89 | 1008.9 |
| 20260906021250 | 83 | 221 | 3.0 | 7.0 | 0.00 | 0.00 | 0.00 | 89 | 1009.0 |
| 20260906020748 | 83 | 221 | 3.0 | 11.0 | 0.00 | 0.00 | 0.00 | 89 | 1009.0 |
| 20260906020247 | 83 | 221 | 3.0 | 11.0 | 0.00 | 0.00 | 0.00 | 89 | 1008.9 |
| 20260906015909 | 83 | 221 | 4.0 | 11.0 | 0.00 | 0.00 | 0.00 | 89 | 1008.9 |
| 20260906015137 | 83 | 221 | 3.0 | 6.0 | 0.00 | 0.00 | 0.00 | 88 | 1008.8 |
| 20260906014251 | 83 | 221 | 3.0 | 5.0 | 0.00 | 0.00 | 0.00 | 88 | 1008.9 |
| 20260906014117 | 83 | 221 | 3.0 | 8.0 | 0.00 | 0.00 | 0.00 | 88 | 1008.9 |
| 20260906013243 | 83 | 221 | 3.0 | 8.0 | 0.00 | 0.00 | 0.00 | 88 | 1008.9 |
| 20260906012745 | 83 | 221 | 3.0 | 8.0 | 0.00 | 0.00 | 0.00 | 87 | 1008.8 |
| 20260906012246 | 83 | 221 | 3.0 | 8.0 | 0.00 | 0.00 | 0.00 | 87 | 1008.7 |
| 20260906011744 | 83 | 221 | 3.0 | 8.0 | 0.00 | 0.00 | 0.00 | 87 | 1008.8 |
| 20260906011321 | 84 | 221 | 3.0 | 6.0 | 0.00 | 0.00 | 0.00 | 87 | 1008.7 |
| 20260906011252 | 84 | 221 | 3.0 | 6.0 | 0.00 | 0.00 | 0.00 | 87 | 1008.8 |
| 20260906010643 | 84 | 221 | 3.0 | 6.0 | 0.00 | 0.00 | 0.00 | 86 | 1008.8 |
| 20260906005741 | 84 | 221 | 3.0 | 6.0 | 0.00 | 0.00 | 0.00 | 86 | 1008.7 |
| 20260906005308 | 84 | 221 | 3.0 | 6.0 | 0.00 | 0.00 | 0.00 | 86 | 1008.7 |
| 20260906004843 | 84 | 221 | 2.0 | 6.0 | 0.00 | 0.00 | 0.00 | 85 | 1008.9 |
| 20260906004810 | 85 | 221 | 3.0 | 7.0 | 0.00 | 0.00 | 0.00 | 85 | 1008.8 |
| 20260906004741 | 84 | 221 | 3.0 | 8.0 | 0.00 | 0.00 | 0.00 | 86 | 1008.8 |
| 20260906004433 | 84 | 221 | 3.0 | 8.0 | 0.00 | 0.00 | 0.00 | 85 | 1008.8 |
| 20260906004008 | 84 | 221 | 2.0 | 6.0 | 0.00 | 0.00 | 0.00 | 85 | 1008.9 |
| 20260906002511 | 85 | 221 | 3.0 | 7.0 | 0.00 | 0.00 | 0.00 | 84 | 1008.6 |
| 20260906002321 | 85 | 221 | 3.0 | 7.0 | 0.00 | 0.00 | 0.00 | 84 | 1008.7 |
| 20260906001416 | 85 | 221 | 3.0 | 8.0 | 0.00 | 0.00 | 0.00 | 83 | 1008.6 |
| 20260906001319 | 85 | 221 | 3.0 | 7.0 | 0.00 | 0.00 | 0.00 | 84 | 1008.6 |
| 20260906000241 | 85 | 221 | 4.0 | 9.0 | 0.00 | 0.00 | 0.00 | 83 | 1008.6 |
| 20260905235738 | 85 | 221 | 4.0 | 9.0 | 0.00 | 0.00 | 0.00 | 82 | 1008.5 |
| 20260905235240 | 86 | 221 | 4.0 | 8.0 | 0.00 | 0.00 | 0.00 | 82 | 1008.7 |
| 20260905234900 | 86 | 221 | 4.0 | 9.0 | 0.00 | 0.00 | 0.00 | 81 | 1008.7 |
| 20260905233736 | 87 | 221 | 5.0 | 12.0 | 0.00 | 0.00 | 0.00 | 79 | 1008.6 |
| 20260905233351 | 87 | 221 | 5.0 | 8.0 | 0.00 | 0.00 | 0.00 | 77 | 1008.5 |
| 20260905232501 | 88 | 221 | 2.0 | 6.0 | 0.00 | 0.00 | 0.00 | 73 | 1008.4 |
| 20260905231724 | 89 | 221 | 2.0 | 5.0 | 0.00 | 0.00 | 0.00 | 72 | 1008.1 |
| 20260905231452 | 89 | 221 | 3.0 | 6.0 | 0.00 | 0.00 | 0.00 | 71 | 1008.2 |
| 20260905230725 | 89 | 221 | 2.0 | 6.0 | 0.00 | 0.00 | 0.00 | 71 | 1008.2 |
| 20260905230223 | 89 | 221 | 2.0 | 6.0 | 0.00 | 0.00 | 0.00 | 71 | 1008.2 |
| 20260905230108 | 89 | 221 | 2.0 | 6.0 | 0.00 | 0.00 | 0.00 | 71 | 1008.1 |
| 20260905225222 | 90 | 221 | 2.0 | 6.0 | 0.00 | 0.00 | 0.00 | 70 | 1008.1 |
| 20260905224723 | 90 | 221 | 2.0 | 8.0 | 0.00 | 0.00 | 0.00 | 69 | 1008.1 |
| 20260905224536 | 90 | 221 | 2.0 | 8.0 | 0.00 | 0.00 | 0.00 | 69 | 1008.1 |
| 20260905224058 | 90 | 221 | 2.0 | 8.0 | 0.00 | 0.00 | 0.00 | 69 | 1008.0 |
| 20260905223609 | 90 | 221 | 3.0 | 8.0 | 0.00 | 0.00 | 0.00 | 69 | 1008.0 |
| 20260905222714 | 90 | 221 | 3.0 | 6.0 | 0.00 | 0.00 | 0.00 | 68 | 1008.1 |
| 20260905222211 | 90 | 221 | 2.0 | 8.0 | 0.00 | 0.00 | 0.00 | 68 | 1008.1 |
| 20260905221709 | 91 | 221 | 2.0 | 8.0 | 0.00 | 0.00 | 0.00 | 69 | 1008.1 |
| 20260905221210 | 91 | 221 | 2.0 | 8.0 | 0.00 | 0.00 | 0.00 | 68 | 1008.1 |
| 20260905220711 | 91 | 221 | 2.0 | 8.0 | 0.00 | 0.00 | 0.00 | 69 | 1008.2 |
| 20260905220207 | 91 | 221 | 2.0 | 7.0 | 0.00 | 0.00 | 0.00 | 67 | 1008.4 |
| 20260905220028 | 91 | 221 | 3.0 | 8.0 | 0.00 | 0.00 | 0.00 | 66 | 1008.5 |
| 20260905215204 | 91 | 221 | 3.0 | 8.0 | 0.00 | 0.00 | 0.00 | 66 | 1008.6 |
| 20260905214704 | 92 | 221 | 3.0 | 8.0 | 0.00 | 0.00 | 0.00 | 64 | 1008.6 |
| 20260905214203 | 92 | 221 | 2.0 | 8.0 | 0.00 | 0.00 | 0.00 | 64 | 1008.5 |
| 20260905214015 | 93 | 220 | 2.0 | 6.0 | 0.00 | 0.00 | 0.00 | 62 | 1008.6 |
| 20260905213153 | 93 | 220 | 3.0 | 7.0 | 0.00 | 0.00 | 0.00 | 64 | 1008.4 |
| 20260905212646 | 94 | 220 | 3.0 | 8.0 | 0.00 | 0.00 | 0.00 | 60 | 1008.3 |
| 20260905212140 | 94 | 220 | 2.0 | 8.0 | 0.00 | 0.00 | 0.00 | 60 | 1008.3 |
| 20260905211639 | 94 | 220 | 3.0 | 8.0 | 0.00 | 0.00 | 0.00 | 61 | 1008.4 |
| 20260905211137 | 95 | 220 | 2.0 | 8.0 | 0.00 | 0.00 | 0.00 | 60 | 1008.3 |
| 20260905210638 | 95 | 220 | 2.0 | 8.0 | 0.00 | 0.00 | 0.00 | 58 | 1008.3 |
| 20260905210137 | 95 | 220 | 3.0 | 8.0 | 0.00 | 0.00 | 0.00 | 57 | 1008.3 |
| 20260905205638 | 95 | 220 | 3.0 | 8.0 | 0.00 | 0.00 | 0.00 | 61 | 1008.1 |
| 20260905205137 | 95 | 220 | 3.0 | 8.0 | 0.00 | 0.00 | 0.00 | 61 | 1008.1 |
| 20260905205005 | 94 | 220 | 3.0 | 8.0 | 0.00 | 0.00 | 0.00 | 59 | 1008.1 |
| 20260905204447 | 95 | 220 | 3.0 | 7.0 | 0.00 | 0.00 | 0.00 | 60 | 1008.0 |
| 20260905203638 | 95 | 220 | 3.0 | 7.0 | 0.00 | 0.00 | 0.00 | 59 | 1007.8 |
| 20260905203454 | 95 | 220 | 3.0 | 7.0 | 0.00 | 0.00 | 0.00 | 59 | 1007.8 |
| 20260905202637 | 95 | 220 | 3.0 | 9.0 | 0.00 | 0.00 | 0.00 | 59 | 1007.8 |
| 20260905202138 | 95 | 220 | 3.0 | 9.0 | 0.00 | 0.00 | 0.00 | 61 | 1007.9 |
| 20260905201636 | 95 | 220 | 3.0 | 9.0 | 0.00 | 0.00 | 0.00 | 61 | 1007.9 |
| 20260905201134 | 95 | 220 | 4.0 | 9.0 | 0.00 | 0.00 | 0.00 | 62 | 1008.0 |
| 20260905201010 | 95 | 220 | 4.0 | 9.0 | 0.00 | 0.00 | 0.00 | 60 | 1008.1 |
| 20260905200129 | 95 | 220 | 3.0 | 9.0 | 0.00 | 0.00 | 0.00 | 59 | 1008.1 |
| 20260905195629 | 95 | 220 | 3.0 | 9.0 | 0.00 | 0.00 | 0.00 | 59 | 1008.1 |
| 20260905195518 | 95 | 220 | 3.0 | 9.0 | 0.00 | 0.00 | 0.00 | 59 | 1008.2 |
| 20260905194623 | 95 | 220 | 3.0 | 9.0 | 0.00 | 0.00 | 0.00 | 61 | 1008.3 |
| 20260905194118 | 94 | 221 | 4.0 | 9.0 | 0.00 | 0.00 | 0.00 | 60 | 1008.3 |
| 20260905193611 | 94 | 221 | 3.0 | 8.0 | 0.00 | 0.00 | 0.00 | 64 | 1008.3 |
| 20260905193105 | 94 | 221 | 4.0 | 12.0 | 0.00 | 0.00 | 0.00 | 62 | 1008.5 |
| 20260905192605 | 94 | 221 | 5.0 | 12.0 | 0.00 | 0.00 | 0.00 | 65 | 1008.5 |
| 20260905192108 | 94 | 221 | 5.0 | 12.0 | 0.00 | 0.00 | 0.00 | 64 | 1008.6 |
| 20260905191610 | 93 | 221 | 6.0 | 12.0 | 0.00 | 0.00 | 0.00 | 64 | 1008.7 |
| 20260905191109 | 93 | 221 | 4.0 | 12.0 | 0.00 | 0.00 | 0.00 | 64 | 1008.8 |
| 20260905190829 | 93 | 221 | 4.0 | 10.0 | 0.00 | 0.00 | 0.00 | 61 | 1008.7 |
| 20260905190222 | 93 | 221 | 4.0 | 10.0 | 0.00 | 0.00 | 0.00 | 63 | 1008.8 |
| 20260905185106 | 93 | 221 | 4.0 | 8.0 | 0.00 | 0.00 | 0.00 | 66 | 1009.1 |
| 20260905184647 | 92 | 221 | 5.0 | 11.0 | 0.00 | 0.00 | 0.00 | 64 | 1009.3 |
| 20260905184616 | 93 | 221 | 6.0 | 11.0 | 0.00 | 0.00 | 0.00 | 64 | 1009.2 |
| 20260905183843 | 92 | 221 | 3.0 | 10.0 | 0.00 | 0.00 | 0.00 | 64 | 1009.3 |
| 20260905183456 | 92 | 221 | 3.0 | 7.0 | 0.00 | 0.00 | 0.00 | 64 | 1009.4 |
| 20260905183229 | 92 | 221 | 3.0 | 7.0 | 0.00 | 0.00 | 0.00 | 64 | 1009.4 |
| 20260905182104 | 92 | 221 | 3.0 | 8.0 | 0.00 | 0.00 | 0.00 | 66 | 1009.6 |
| 20260905181604 | 92 | 221 | 3.0 | 8.0 | 0.00 | 0.00 | 0.00 | 66 | 1009.7 |
| 20260905181103 | 92 | 221 | 3.0 | 9.0 | 0.00 | 0.00 | 0.00 | 66 | 1009.8 |
| 20260905180603 | 92 | 221 | 3.0 | 9.0 | 0.00 | 0.00 | 0.00 | 67 | 1009.8 |
| 20260905180443 | 92 | 221 | 3.0 | 8.0 | 0.00 | 0.00 | 0.00 | 66 | 1009.9 |
| 20260905175820 | 91 | 221 | 3.0 | 8.0 | 0.00 | 0.00 | 0.00 | 70 | 1010.1 |
| 20260905175510 | 91 | 221 | 3.0 | 8.0 | 0.00 | 0.00 | 0.00 | 70 | 1010.2 |
| 20260905174829 | 91 | 221 | 4.0 | 8.0 | 0.00 | 0.00 | 0.00 | 70 | 1010.3 |
| 20260905174101 | 91 | 221 | 4.0 | 8.0 | 0.00 | 0.00 | 0.00 | 67 | 1010.3 |
| 20260905173605 | 91 | 221 | 3.0 | 6.0 | 0.00 | 0.00 | 0.00 | 69 | 1010.4 |
| 20260905173101 | 91 | 221 | 4.0 | 7.0 | 0.00 | 0.00 | 0.00 | 70 | 1010.5 |
| 20260905172602 | 90 | 221 | 3.0 | 7.0 | 0.00 | 0.00 | 0.00 | 73 | 1010.6 |
| 20260905172101 | 90 | 221 | 2.0 | 5.0 | 0.00 | 0.00 | 0.00 | 71 | 1010.6 |
| 20260905171950 | 89 | 221 | 2.0 | 5.0 | 0.00 | 0.00 | 0.00 | 73 | 1010.7 |
| 20260905171102 | 89 | 221 | 2.0 | 6.0 | 0.00 | 0.00 | 0.00 | 72 | 1010.7 |
| 20260905170602 | 89 | 221 | 3.0 | 7.0 | 0.00 | 0.00 | 0.00 | 73 | 1010.8 |
| 20260905170437 | 89 | 221 | 3.0 | 7.0 | 0.00 | 0.00 | 0.00 | 73 | 1010.9 |
| 20260905165604 | 89 | 221 | 3.0 | 10.0 | 0.00 | 0.00 | 0.00 | 76 | 1010.9 |
| 20260905165108 | 88 | 221 | 3.0 | 10.0 | 0.00 | 0.00 | 0.00 | 73 | 1011.0 |
| 20260905164605 | 88 | 221 | 2.0 | 6.0 | 0.00 | 0.00 | 0.00 | 75 | 1011.0 |
| 20260905164103 | 88 | 221 | 2.0 | 5.0 | 0.00 | 0.00 | 0.00 | 73 | 1011.1 |
| 20260905163638 | 88 | 221 | 4.0 | 11.0 | 0.00 | 0.00 | 0.00 | 76 | 1011.1 |
| 20260905163621 | 88 | 221 | 3.0 | 6.0 | 0.00 | 0.00 | 0.00 | 75 | 1011.1 |
| 20260905162105 | 86 | 221 | 5.0 | 11.0 | 0.00 | 0.00 | 0.00 | 79 | 1011.2 |
| 20260905161938 | 86 | 221 | 4.0 | 11.0 | 0.00 | 0.00 | 0.00 | 79 | 1011.3 |
| 20260905161101 | 86 | 221 | 4.0 | 10.0 | 0.00 | 0.00 | 0.00 | 79 | 1011.4 |
| 20260905160952 | 86 | 221 | 5.0 | 12.0 | 0.00 | 0.00 | 0.00 | 79 | 1011.4 |
| 20260905160101 | 86 | 221 | 5.0 | 12.0 | 0.00 | 0.00 | 0.00 | 80 | 1011.5 |
| 20260905155601 | 85 | 221 | 5.0 | 11.0 | 0.00 | 0.00 | 0.00 | 79 | 1011.6 |
| 20260905155101 | 85 | 221 | 6.0 | 11.0 | 0.00 | 0.00 | 0.00 | 80 | 1011.7 |
| 20260905154606 | 85 | 221 | 7.0 | 11.0 | 0.00 | 0.00 | 0.00 | 79 | 1011.7 |
| 20260905154101 | 85 | 221 | 7.0 | 11.0 | 0.00 | 0.00 | 0.00 | 80 | 1011.7 |
| 20260905154001 | 85 | 221 | 6.0 | 11.0 | 0.00 | 0.00 | 0.00 | 78 | 1011.8 |
| 20260905153103 | 85 | 221 | 3.0 | 11.0 | 0.00 | 0.00 | 0.00 | 79 | 1011.8 |
| 20260905152602 | 85 | 221 | 4.0 | 9.0 | 0.00 | 0.00 | 0.00 | 79 | 1011.9 |
| 20260905152106 | 85 | 221 | 5.0 | 9.0 | 0.00 | 0.00 | 0.00 | 79 | 1011.9 |
| 20260905151602 | 85 | 221 | 6.0 | 10.0 | 0.00 | 0.00 | 0.00 | 80 | 1011.8 |
| 20260905151105 | 85 | 221 | 5.0 | 10.0 | 0.00 | 0.00 | 0.00 | 81 | 1011.8 |
| 20260905150602 | 85 | 221 | 6.0 | 10.0 | 0.00 | 0.00 | 0.00 | 82 | 1011.9 |
| 20260905150454 | 85 | 221 | 6.0 | 10.0 | 0.00 | 0.00 | 0.00 | 81 | 1012.0 |
| 20260905145847 | 84 | 221 | 4.0 | 10.0 | 0.00 | 0.00 | 0.00 | 82 | 1012.0 |
| 20260905145105 | 84 | 221 | 2.0 | 9.0 | 0.00 | 0.00 | 0.00 | 83 | 1012.0 |
| 20260905144603 | 84 | 221 | 3.0 | 9.0 | 0.00 | 0.00 | 0.00 | 81 | 1012.0 |
| 20260905144107 | 84 | 221 | 6.0 | 11.0 | 0.00 | 0.00 | 0.00 | 83 | 1012.0 |
| 20260905143604 | 83 | 221 | 6.0 | 11.0 | 0.00 | 0.00 | 0.00 | 84 | 1012.0 |
| 20260905143102 | 83 | 221 | 5.0 | 9.0 | 0.00 | 0.00 | 0.00 | 83 | 1012.0 |
| 20260905142606 | 83 | 221 | 5.0 | 8.0 | 0.00 | 0.00 | 0.00 | 84 | 1012.1 |
| 20260905142106 | 82 | 221 | 5.0 | 9.0 | 0.00 | 0.00 | 0.00 | 85 | 1012.0 |
| 20260905141602 | 82 | 221 | 5.0 | 9.0 | 0.00 | 0.00 | 0.00 | 85 | 1012.0 |
| 20260905141102 | 82 | 221 | 4.0 | 8.0 | 0.00 | 0.00 | 0.00 | 85 | 1012.0 |
| 20260905140602 | 82 | 221 | 4.0 | 8.0 | 0.00 | 0.00 | 0.00 | 85 | 1012.0 |
| 20260905140106 | 82 | 221 | 5.0 | 9.0 | 0.00 | 0.00 | 0.00 | 85 | 1012.0 |
| 20260905140023 | 82 | 221 | 5.0 | 9.0 | 0.00 | 0.00 | 0.00 | 85 | 1012.1 |
| 20260905135103 | 82 | 221 | 4.0 | 7.0 | 0.00 | 0.00 | 0.00 | 86 | 1012.1 |
| 20260905134605 | 82 | 221 | 4.0 | 7.0 | 0.00 | 0.00 | 0.00 | 86 | 1012.0 |
| 20260905134443 | 82 | 221 | 3.0 | 8.0 | 0.00 | 0.00 | 0.00 | 86 | 1012.1 |
| 20260905133608 | 82 | 221 | 2.0 | 8.0 | 0.00 | 0.00 | 0.00 | 86 | 1012.1 |
| 20260905133108 | 82 | 221 | 2.0 | 5.0 | 0.00 | 0.00 | 0.00 | 86 | 1012.0 |
| 20260905132604 | 82 | 221 | 3.0 | 8.0 | 0.00 | 0.00 | 0.00 | 86 | 1012.1 |
| 20260905132109 | 82 | 221 | 3.0 | 9.0 | 0.00 | 0.00 | 0.00 | 86 | 1012.0 |
| 20260905131611 | 82 | 221 | 2.0 | 9.0 | 0.00 | 0.00 | 0.00 | 86 | 1012.1 |
| 20260905131113 | 82 | 221 | 5.0 | 9.0 | 0.00 | 0.00 | 0.00 | 87 | 1012.1 |
| 20260905130609 | 82 | 221 | 6.0 | 9.0 | 0.00 | 0.00 | 0.00 | 86 | 1012.1 |
| 20260905130107 | 82 | 221 | 5.0 | 8.0 | 0.00 | 0.00 | 0.00 | 87 | 1012.0 |
| 20260905125604 | 81 | 221 | 3.0 | 7.0 | 0.00 | 0.00 | 0.00 | 87 | 1011.9 |
| 20260905125104 | 81 | 221 | 3.0 | 7.0 | 0.00 | 0.00 | 0.00 | 87 | 1011.8 |
| 20260905124601 | 81 | 221 | 3.0 | 7.0 | 0.00 | 0.00 | 0.00 | 87 | 1011.8 |
| 20260905124101 | 80 | 221 | 3.0 | 7.0 | 0.00 | 0.00 | 0.00 | 88 | 1011.7 |
| 20260905123612 | 80 | 221 | 4.0 | 7.0 | 0.00 | 0.00 | 0.00 | 88 | 1011.7 |
| 20260905123102 | 80 | 221 | 4.0 | 7.0 | 0.00 | 0.00 | 0.00 | 89 | 1011.7 |
| 20260905122602 | 79 | 221 | 2.0 | 6.0 | 0.00 | 0.00 | 0.00 | 90 | 1011.6 |
| 20260905122104 | 79 | 221 | 2.0 | 6.0 | 0.00 | 0.00 | 0.00 | 91 | 1011.7 |
| 20260905122030 | 79 | 221 | 3.0 | 6.0 | 0.00 | 0.00 | 0.00 | 91 | 1011.7 |
| 20260905121104 | 78 | 221 | 2.0 | 6.0 | 0.00 | 0.00 | 0.00 | 92 | 1011.6 |
| 20260905120632 | 78 | 221 | 2.0 | 4.0 | 0.00 | 0.00 | 0.00 | 92 | 1011.5 |
| 20260905120124 | 78 | 221 | 1.0 | 3.0 | 0.00 | 0.00 | 0.00 | 92 | 1011.5 |
| 20260905115607 | 78 | 222 | 0.0 | 3.0 | 0.00 | 0.00 | 0.00 | 93 | 1011.5 |
| 20260905115104 | 78 | 222 | 0.0 | 1.0 | 0.00 | 0.00 | 0.00 | 93 | 1011.5 |
| 20260905114722 | 78 | 222 | 0.0 | 1.0 | 0.00 | 0.00 | 0.00 | 93 | 1011.4 |
| 20260905113606 | 78 | 222 | 1.0 | 3.0 | 0.00 | 0.00 | 0.00 | 92 | 1011.3 |
| 20260905113109 | 78 | 222 | 0.0 | 3.0 | 0.00 | 0.00 | 0.00 | 92 | 1011.3 |
| 20260905112619 | 78 | 222 | 0.0 | 3.0 | 0.00 | 0.00 | 0.00 | 92 | 1011.3 |
| 20260905112326 | 78 | 222 | 1.0 | 3.0 | 0.00 | 0.00 | 0.00 | 92 | 1011.3 |